Date,TemperatureHighF,TemperatureAvgF,TemperatureLowF,DewpointHighF,DewpointAvgF,DewpointLowF,HumidityHigh,HumidityAvg,HumidityLow,PressureMaxIn,PressureMinIn,WindSpeedMaxMPH,WindSpeedAvgMPH,GustSpeedMaxMPH,PrecipitationSumIn
2013-5-1,57.2,37.0,16.3,28.0,18.5,10.7,94,54,16,30.36,30.10,17,3,17,0.00
2013-5-2,72.5,47.2,21.2,27.7,17.9,6.1,86,41,10,30.37,30.07,17,4,17,0.00
2013-5-3,54.0,45.0,36.3,45.6,37.1,23.2,99,75,47,30.12,30.05,12,2,12,0.41
2013-5-4,63.5,48.3,36.3,46.5,41.2,36.1,99,79,41,34.00,30.06,17,3,17,0.04
2013-5-5,73.2,51.4,29.3,43.8,37.6,29.1,99,66,28,30.07,29.85,14,4,18,0.00
2013-5-6,83.7,56.9,30.6,45.6,36.4,25.2,99,57,12,29.90,29.71,11,3,11,0.00
2013-5-7,77.5,57.2,34.3,48.0,37.6,32.7,97,54,23,29.95,29.74,20,5,20,0.00
2013-5-8,82.2,58.4,34.3,43.5,38.3,32.1,95,54,18,30.03,29.88,15,3,15,0.00
2013-5-9,82.4,60.2,38.7,48.3,41.5,29.6,95,56,15,30.02,29.92,17,3,17,0.00
2013-5-10,73.0,55.4,37.2,41.2,35.1,28.4,99,53,20,30.26,29.98,19,5,20,0.00
2013-5-11,89.6,62.2,33.8,45.9,35.9,24.4,91,47,10,30.19,29.91,14,3,19,0.00
2013-5-12,94.1,69.7,44.1,54.9,41.3,31.0,90,44,13,29.96,29.78,15,4,15,0.00
2013-5-13,91.0,71.1,52.9,54.3,45.1,31.7,75,44,13,29.87,29.55,24,4,24,0.00
2013-5-14,76.5,61.4,50.0,34.4,25.1,8.8,53,29,10,29.88,29.79,24,7,24,0.00
2013-5-15,77.7,58.2,35.1,35.5,28.4,11.9,74,37,10,29.91,29.75,11,3,11,0.00
2013-5-16,73.2,57.2,39.6,45.4,38.9,33.9,86,53,29,29.78,29.70,13,3,13,0.00
2013-5-17,61.2,51.1,35.6,51.6,44.3,33.7,98,79,53,29.82,29.75,10,2,10,0.20
2013-5-18,70.5,54.4,47.7,52.8,48.8,46.0,99,83,42,29.88,29.78,14,2,14,0.04
2013-5-19,60.1,51.6,47.1,52.7,48.5,46.3,99,90,71,30.04,29.87,8,1,8,0.31
2013-5-20,68.0,53.2,44.8,53.6,49.7,43.3,99,89,53,30.07,29.59,12,1,12,0.12
2013-5-21,79.0,58.8,35.1,52.7,38.6,23.7,99,57,15,29.85,29.47,22,5,22,0.01
2013-5-22,65.8,56.7,45.5,51.1,43.7,34.3,96,63,39,29.74,29.65,21,4,21,0.26
2013-5-23,59.7,47.8,42.1,46.7,43.6,40.8,99,87,57,29.83,29.70,13,2,13,0.58
2013-5-24,71.1,53.2,41.4,43.5,38.9,27.5,99,65,22,29.85,29.73,21,5,21,0.04
2013-5-25,76.3,55.1,34.9,43.9,38.2,33.2,94,58,24,29.86,29.76,16,3,16,0.00
2013-5-26,72.5,53.0,33.3,52.0,42.4,32.7,99,72,33,29.88,29.74,14,3,14,0.34
2013-5-27,73.2,52.0,39.6,53.2,46.4,39.3,99,84,39,29.79,29.66,10,2,10,0.05
2013-5-28,68.2,52.1,40.8,52.8,47.8,40.6,99,87,49,29.67,29.62,9,2,9,0.27
2013-5-29,70.2,56.4,46.8,53.3,48.2,43.8,99,76,47,29.67,29.55,16,3,16,0.00
2013-5-30,59.5,52.7,46.6,50.5,45.6,38.7,97,78,48,29.85,29.63,9,2,11,0.06
2013-5-31,59.0,49.5,43.0,48.3,44.9,39.1,97,85,60,30.14,29.85,14,2,14,0.11